Regional Weather Roundup
Issued by NWS Charleston, SC

Current Version | Previous Version | Graphics & Text | Print | Product List | Glossary On
Versions: 1 2 3 4 5 6 7 8 9 10 11 12 13 14 15 16 17 18 19 20 21 22 23 24 25 26 27 28 29 30 31 32 33 34 35 36 37 38 39 40 41 42 43 44 45 46 47 48 49 50
000 ASUS42 KCHS 221226 RWRCHS REGIONAL WEATHER ROUNDUP NATIONAL WEATHER SERVICE CHARLESTON SC 800 AM EDT FRI SEP 22 2017 NOTE: "FAIR" INDICATES FEW OR NO CLOUDS BELOW 12,000 FEET WITH NO SIGNIFICANT WEATHER AND/OR OBSTRUCTIONS TO VISIBILITY. NOT ALL STATIONS ARE QUALITY CONTROLLED. USE DATA WITH CAUTION... ESPECIALLY DEWPOINT OBSERVATIONS. SCZ027-030-031-034>040-042>050-221300- ...SOUTHEAST SOUTH CAROLINA... CITY SKY/WX TMP DP RH WIND PRES REMARKS N CHARLESTON PTCLDY 71 70 96 CALM 30.04S 6HR MIN TEMP: 67; 6HR MAX TEMP: 71; WATERFRONT PRK N/A 74 72 93 VRB3 29.88R JOHNS ISLAND FAIR 73 73 100 N5 30.04S FOG PINOPOLIS N/A 70 70 100 VRB2 29.97R MONCKS CORNER FAIR 66 66 100 CALM 30.05S FOG SUMMERVILLE FAIR 66 64 94 CALM 30.06R BEAUFORT MCAS PTCLDY 72 72 100 N5 30.04S 6HR MIN TEMP: 69; 6HR MAX TEMP: 74; BEAUFORT ARPT FAIR 72 72 100 CALM 30.04R FOG HILTON HEAD IS PTCLDY 75 75 100 N6 30.04R WALTERBORO SUNNY 68 66 94 CALM 30.06R ALLENDALE NOT AVBL ...SOUTHERN MIDLANDS AND PEE DEE... CITY SKY/WX TMP DP RH WIND PRES REMARKS GEORGETOWN PTSUNNY 68 68 100 N3 30.06S FOG KINGSTREE FAIR 64 64 100 CALM 30.06S ORANGEBURG CLEAR 69 66 90 CALM 30.06R 6HR MIN TEMP: 67; 6HR MAX TEMP: 69; BARNWELL FAIR 68 68 100 CALM 30.05S AIKEN FAIR 64 64 100 CALM 30.10S MANNING FAIR 64 55 72 CALM 30.06S COLUMBIA PTCLDY 71 67 87 CALM 30.06R 6HR MIN TEMP: 69; 6HR MAX TEMP: 73; SUMTER CLEAR 67 64 92 NE3 30.05R 6HR MIN TEMP: 65; 6HR MAX TEMP: 69; FLORENCE SUNNY 67 67 100 CALM 30.07R 6HR MIN TEMP: 66; 6HR MAX TEMP: 69; MYRTLE BEACH SUNNY 69 66 90 CALM 30.07R N MYRTLE BEACH SUNNY 69 66 90 NE5 30.05S 6HR MIN TEMP: 67; 6HR MAX TEMP: 69; $$ GAZ063-065-086>088-099>101-113>116-118-119-134>141-150-221300- ...SOUTHEAST GEORGIA... CITY SKY/WX TMP DP RH WIND PRES REMARKS SAVANNAH ARPT PTCLDY 70 70 100 CALM 30.04R FOG 6HR MIN TEMP: 69; 6HR MAX TEMP: 73; HUNTER AAF PTCLDY 72 71 96 N3 30.01R 6HR MIN TEMP: 72; 6HR MAX TEMP: 74; FORT STEWART FOG 71 69 96 CALM 30.01S VSB 0 6HR MIN TEMP: 69; 6HR MAX TEMP: 72; STATESBORO CLEAR 68 68 100 CALM 30.05R FOG SYLVANIA SUNNY 67 67 100 CALM 30.06S FOG CLAXTON FAIR 68 67 98 CALM 30.05R FOG ...CSRA...CENTRAL AND FAR SOUTHEAST GEORGIA... CITY SKY/WX TMP DP RH WIND PRES REMARKS THOMSON CLEAR 66 64 94 CALM 30.12R AUGUSTA-BUSH CLEAR 68 66 93 CALM 30.05R 6HR MIN TEMP: 66; 6HR MAX TEMP: 71; AUGUSTA-DANIEL CLEAR 73 67 81 CALM 30.07R SWAINSBORO FAIR 68 68 100 CALM 30.06S VIDALIA FOG 70 70 100 CALM 30.05R VSB<1/4 EASTMAN FAIR 67 66 99 CALM 30.07S FOG HAZLEHURST FOG 71 69 94 CALM 30.03S VSB 1/4 ALMA FOG 69 68 96 CALM 30.03R VSB 1/2 6HR MIN TEMP: 67; 6HR MAX TEMP: 71; WAYCROSS PTCLDY 71 67 90 CALM 30.03R FOG JESUP NOT AVBL BAXLEY CLOUDY 68 66 94 CALM 30.04R FOG BRUNSWICK PTCLDY 73 70 88 N5 30.03R SAINT SIMONS PTCLDY 76 74 93 N9 30.01R 6HR MIN TEMP: 76; 6HR MAX TEMP: 80; $$ SCZ027-028-034-036>038-045-046-048>050-GAZ119-141-221300- ...LAKE AND SUPPLEMENTAL COASTAL OBSERVATIONS... STATION/POSITION TIME TEMP WIND PRES WAVE SWELL AIR SEA DIR/SP/G HT/PER HT/PER/DIR (UTC) (F) (DEG/KT/KT) (MB) (FT/S) (FT/S/D) WINYAH BAY 1045 72 20/ 2 1017.0 LAKE MURRAY 1120 72 80/ 2/ 4 1017.3 ACE BASIN NERRS 1045 71 CALM 1017.0 FORT PULASKI 1142 75 80 10/ 4/ 5 1017.2R SAPELO ISLAND 1100 76 CALM 1016.0 $$ ANZ835-935-AMZ111-154-330-350-352-354-370-450-454-472-221300- ...C-MAN AND BUOY OBSERVATIONS... STATION/POSITION TIME TEMP WIND PRES WAVE SWELL AIR SEA DIR/SP/G HT/PER HT/PER/DIR (UTC) (F) (DEG/KT/KT) (MB) (FT/S) (FT/S/D) BUOY 41004 1150 79 82 30/ 8/ 10 1016.5R 3/10 3/130/10 BUOY 41008 1150 80 80 60/ 10/ 12 1016.0R 3/10 2/140/10 FOLLY BEACH CMAN 1200 75 360/ 5/ 7 1017.8R CAPERS NEARSHORE 1108 74 81 30/ 8/ 10 1016.8 FRIPP NEARSHORE 1108 79 30/ 6/ 8 1022.0R STATION/POSITION TIME TEMP WIND PRES WAVE SWELL AIR SEA DIR/SP/G HT/PER HT/PER/DIR (UTC) (F) (DEG/KT/KT) (MB) (FT/S) (FT/S/D) 5E ST. MARYS GA 1200 82 N/A 3/11 2/110/11 FRYING PAN BUOY 1150 78 82 40/ 6/ 10 1016.7R 3/10 3/ 90/10 BUOY 41025 1150 75 76 330/ 4/ 6 1017.2R 5/11 5/ 80/11 CAPE LOOKOUT NC 1200 77 80/ 5/ 6 1017.3R BUOY 41002 1150 78 80 50/ 2/ 4 1016.5R 6/10 5/100/10 BUOY 41010 1150 50/ 14/ 17 1014.3R 5/11 3/11 ST AUGUSTINE FL 1200 81 82 30/ 16/ 17 1015.2R $$

USA.gov is the U.S. government's official web portal to all federal, state and local government web resources and services.